CKS275 RKSI-RJTT

Flight info

Callsign CKS275
Flight time N/A
Altitude 35000
Route EGOBA2C EGOBA Y697 LANAT Y71 XAC
Aircraft B77L/H-SDE1E2E3FGHIJ2J3J4J5M1RWXY/LB1D1

Departure

Time 2026-05-05 02:11
Airport Incheon International Airport (RKSI)

Arrival

Time N/A
Airport Tokyo Haneda International Airport (RJTT)
Time Latitude Longitude Altitude Speed Heading
2026-05-05 01:31 37.47573 126.46561 35 ft 0 kts 144°
2026-05-05 01:55 37.47577 126.46557 36 ft 3 kts 144°
2026-05-05 01:55 37.47592 126.46544 35 ft 3 kts 144°
2026-05-05 01:55 37.47608 126.46530 34 ft 3 kts 153°
2026-05-05 01:55 37.47624 126.46522 35 ft 3 kts 174°
2026-05-05 01:56 37.47643 126.46522 36 ft 3 kts 181°
2026-05-05 01:56 37.47650 126.46521 35 ft 1 kts 225°
2026-05-05 01:56 37.47652 126.46523 35 ft 0 kts 239°
2026-05-05 02:00 37.47637 126.46491 37 ft 8 kts 238°
2026-05-05 02:00 37.47599 126.46422 34 ft 10 kts 235°
2026-05-05 02:00 37.47560 126.46351 37 ft 10 kts 234°
2026-05-05 02:01 37.47520 126.46280 37 ft 10 kts 234°
2026-05-05 02:01 37.47480 126.46210 37 ft 10 kts 234°
2026-05-05 02:01 37.47440 126.46140 37 ft 10 kts 234°
2026-05-05 02:01 37.47400 126.46069 37 ft 10 kts 234°
2026-05-05 02:02 37.47361 126.45999 37 ft 10 kts 234°
2026-05-05 02:02 37.47321 126.45929 37 ft 10 kts 234°
2026-05-05 02:02 37.47281 126.45859 37 ft 10 kts 234°
2026-05-05 02:02 37.47241 126.45788 37 ft 10 kts 234°
2026-05-05 02:03 37.47201 126.45718 37 ft 10 kts 235°
2026-05-05 02:03 37.47162 126.45647 36 ft 10 kts 235°
2026-05-05 02:03 37.47123 126.45577 37 ft 10 kts 234°
2026-05-05 02:03 37.47101 126.45498 37 ft 10 kts 277°
2026-05-05 02:04 37.47147 126.45436 35 ft 10 kts 323°
2026-05-05 02:04 37.47209 126.45379 37 ft 13 kts 324°
2026-05-05 02:04 37.47297 126.45301 37 ft 16 kts 324°
2026-05-05 02:04 37.47391 126.45218 37 ft 16 kts 325°
2026-05-05 02:05 37.47484 126.45135 37 ft 16 kts 324°
2026-05-05 02:05 37.47578 126.45052 37 ft 16 kts 324°
2026-05-05 02:05 37.47671 126.44968 37 ft 16 kts 324°
2026-05-05 02:05 37.47766 126.44883 37 ft 16 kts 324°
2026-05-05 02:06 37.47859 126.44801 37 ft 16 kts 325°
2026-05-05 02:06 37.47948 126.44722 37 ft 15 kts 324°
2026-05-05 02:06 37.47985 126.44616 37 ft 15 kts 253°
2026-05-05 02:06 37.47931 126.44505 37 ft 15 kts 232°
2026-05-05 02:07 37.47872 126.44400 37 ft 15 kts 234°
2026-05-05 02:07 37.47836 126.44286 37 ft 15 kts 283°
2026-05-05 02:07 37.47903 126.44188 37 ft 15 kts 321°
2026-05-05 02:07 37.47986 126.44113 37 ft 15 kts 325°
2026-05-05 02:08 37.48070 126.44039 36 ft 15 kts 324°
2026-05-05 02:08 37.48155 126.43963 37 ft 15 kts 324°
2026-05-05 02:08 37.48236 126.43892 37 ft 10 kts 324°
2026-05-05 02:08 37.48270 126.43840 37 ft 8 kts 269°
2026-05-05 02:09 37.48241 126.43783 37 ft 8 kts 235°
2026-05-05 02:09 37.48209 126.43726 37 ft 8 kts 234°
2026-05-05 02:09 37.48177 126.43670 37 ft 8 kts 229°
2026-05-05 02:09 37.48129 126.43681 37 ft 8 kts 146°
2026-05-05 02:10 37.48014 126.43784 37 ft 42 kts 145°
2026-05-05 02:10 37.47568 126.44179 37 ft 111 kts 145°
2026-05-05 02:10 37.46785 126.44873 37 ft 164 kts 145°
2026-05-05 02:10 37.45776 126.45762 342 ft 179 kts 147°
2026-05-05 02:11 37.44814 126.46783 901 ft 183 kts 122°
2026-05-05 02:11 37.44301 126.48309 1505 ft 191 kts 124°
2026-05-05 02:11 37.43431 126.49517 2030 ft 188 kts 141°
2026-05-05 02:11 37.42517 126.50713 2648 ft 190 kts 137°
2026-05-05 02:12 37.41640 126.51959 3272 ft 191 kts 136°
2026-05-05 02:12 37.39701 126.54779 3738 ft 240 kts 134°
2026-05-05 02:12 37.38567 126.56452 4183 ft 257 kts 134°
2026-05-05 02:13 37.37369 126.58142 4798 ft 262 kts 142°
2026-05-05 02:13 37.35778 126.59195 5354 ft 261 kts 165°
2026-05-05 02:13 37.34021 126.59907 6039 ft 268 kts 164°
2026-05-05 02:13 37.32244 126.60668 6785 ft 273 kts 163°
2026-05-05 02:14 37.30425 126.61454 7535 ft 276 kts 163°
2026-05-05 02:14 37.28722 126.62530 8171 ft 282 kts 141°
2026-05-05 02:14 37.27566 126.64560 8863 ft 290 kts 110°
2026-05-05 02:14 37.27284 126.67031 9605 ft 291 kts 89°
2026-05-05 02:15 37.27406 126.69608 9999 ft 297 kts 87°
2026-05-05 02:15 37.27569 126.72232 9975 ft 305 kts 86°
2026-05-05 02:15 37.27738 126.74889 9973 ft 301 kts 86°
2026-05-05 02:15 37.27897 126.77480 9975 ft 297 kts 87°
2026-05-05 02:16 37.28047 126.80076 10028 ft 299 kts 87°
2026-05-05 02:16 37.28195 126.82751 10233 ft 321 kts 87°
2026-05-05 02:16 37.28349 126.85652 10447 ft 344 kts 87°
2026-05-05 02:16 37.28517 126.88778 10664 ft 368 kts 86°
2026-05-05 02:17 37.28970 126.91982 11165 ft 382 kts 75°
2026-05-05 02:17 37.29887 126.95142 11995 ft 388 kts 69°
2026-05-05 02:17 37.31075 126.98239 12974 ft 391 kts 63°
2026-05-05 02:17 37.32392 127.01226 13891 ft 397 kts 62°
2026-05-05 02:18 37.33772 127.04280 14693 ft 402 kts 62°
2026-05-05 02:18 37.35152 127.07327 15528 ft 406 kts 62°
2026-05-05 02:18 37.36555 127.10443 16380 ft 409 kts 62°
2026-05-05 02:18 37.37962 127.13592 17182 ft 414 kts 62°
2026-05-05 02:19 37.39358 127.16734 17979 ft 418 kts 61°
2026-05-05 02:19 37.40787 127.19960 18768 ft 421 kts 61°
2026-05-05 02:19 37.42221 127.23200 19431 ft 426 kts 61°
2026-05-05 02:19 37.43661 127.26459 20100 ft 430 kts 61°
2026-05-05 02:20 37.45127 127.29782 20731 ft 435 kts 60°
2026-05-05 02:20 37.46595 127.33113 21333 ft 440 kts 60°
2026-05-05 02:20 37.47967 127.36598 22039 ft 443 kts 67°
2026-05-05 02:20 37.49031 127.40235 22674 ft 448 kts 72°
2026-05-05 02:21 37.49793 127.44039 23210 ft 454 kts 78°
2026-05-05 02:21 37.50401 127.47990 23840 ft 457 kts 79°
2026-05-05 02:21 37.50997 127.51904 24390 ft 460 kts 78°
2026-05-05 02:21 37.51616 127.55892 24936 ft 463 kts 78°
2026-05-05 02:22 37.52250 127.59875 25433 ft 468 kts 78°
2026-05-05 02:22 37.52905 127.63945 25965 ft 471 kts 78°
2026-05-05 02:22 37.53546 127.67937 26521 ft 473 kts 78°
2026-05-05 02:22 37.54199 127.72031 26979 ft 478 kts 78°
2026-05-05 02:23 37.54855 127.76167 27497 ft 480 kts 78°
2026-05-05 02:23 37.55505 127.80279 27976 ft 484 kts 78°
2026-05-05 02:23 37.56167 127.84483 28401 ft 489 kts 78°
2026-05-05 02:23 37.56833 127.88719 28950 ft 489 kts 78°
2026-05-05 02:24 37.57491 127.92907 29352 ft 493 kts 78°
2026-05-05 02:24 37.58161 127.97186 29681 ft 498 kts 78°
2026-05-05 02:24 37.58827 128.01449 30055 ft 501 kts 78°
2026-05-05 02:24 37.59502 128.05777 30562 ft 499 kts 78°
2026-05-05 02:25 37.60167 128.10055 31131 ft 496 kts 78°
2026-05-05 02:25 37.60827 128.14307 31521 ft 497 kts 78°
2026-05-05 02:25 37.61495 128.18618 31964 ft 497 kts 78°
2026-05-05 02:25 37.62153 128.22860 32402 ft 497 kts 78°
2026-05-05 02:26 37.62820 128.27177 32780 ft 498 kts 78°
2026-05-05 02:26 37.63479 128.31446 33115 ft 499 kts 78°
2026-05-05 02:26 37.64136 128.35713 33473 ft 499 kts 78°
2026-05-05 02:26 37.64800 128.40034 33817 ft 500 kts 78°
2026-05-05 02:27 37.65463 128.44364 34136 ft 501 kts 78°
2026-05-05 02:27 37.66117 128.48645 34444 ft 501 kts 78°
2026-05-05 02:27 37.66780 128.52987 34698 ft 502 kts 79°
2026-05-05 02:27 37.67440 128.57336 34900 ft 505 kts 79°
2026-05-05 02:28 37.68098 128.61723 34980 ft 509 kts 79°
2026-05-05 02:28 37.69244 128.70538 35050 ft 510 kts 88°
2026-05-05 02:28 37.69014 128.75018 35055 ft 507 kts 101°
2026-05-05 02:29 37.68117 128.79264 35058 ft 502 kts 112°
2026-05-05 02:29 37.66584 128.83217 35049 ft 495 kts 123°
2026-05-05 02:29 37.64759 128.86899 35066 ft 495 kts 124°
2026-05-05 02:30 37.61078 128.94282 35049 ft 497 kts 123°
2026-05-05 02:30 37.57450 129.01737 35055 ft 499 kts 123°
2026-05-05 02:31 37.53862 129.09199 35058 ft 501 kts 123°
2026-05-05 02:31 37.50243 129.16709 35051 ft 502 kts 123°
2026-05-05 02:32 37.46596 129.24254 35054 ft 502 kts 123°
2026-05-05 02:32 37.42972 129.31729 35061 ft 503 kts 123°
2026-05-05 02:33 37.39331 129.39241 35059 ft 503 kts 123°
2026-05-05 02:33 37.35684 129.46758 35066 ft 504 kts 124°
2026-05-05 02:34 37.32641 129.53018 35075 ft 504 kts 124°
2026-05-05 02:34 37.28974 129.60543 35074 ft 504 kts 124°
2026-05-05 02:35 37.25309 129.68046 35083 ft 505 kts 124°
2026-05-05 02:35 37.21645 129.75533 35087 ft 505 kts 124°
2026-05-05 02:36 37.17965 129.83036 35092 ft 505 kts 124°
2026-05-05 02:36 37.14250 129.90575 35096 ft 506 kts 124°
2026-05-05 02:37 37.10542 129.98061 35103 ft 506 kts 124°
2026-05-05 02:37 37.06826 130.05551 35104 ft 506 kts 125°
2026-05-05 02:38 37.03109 130.13032 35109 ft 507 kts 125°
2026-05-05 02:38 36.99381 130.20520 35112 ft 508 kts 125°
2026-05-05 02:39 36.95635 130.28026 35118 ft 508 kts 125°
2026-05-05 02:39 36.91892 130.35510 35121 ft 509 kts 125°
2026-05-05 02:40 36.88124 130.43026 35121 ft 510 kts 125°
2026-05-05 02:40 36.84351 130.50537 35129 ft 510 kts 126°
2026-05-05 02:41 36.80574 130.58041 35129 ft 511 kts 126°
2026-05-05 02:41 36.76800 130.65523 35135 ft 511 kts 126°
2026-05-05 02:42 36.72994 130.73044 35130 ft 512 kts 126°
2026-05-05 02:42 36.69202 130.80515 35136 ft 513 kts 126°
2026-05-05 02:43 36.65379 130.88037 35142 ft 513 kts 126°
2026-05-05 02:43 36.61550 130.95556 35144 ft 514 kts 126°
2026-05-05 02:44 36.57719 131.03063 35158 ft 514 kts 126°